Location: Washington
(38.8950°N, 77.0370°W)
Time: 10:00:17
(UTC-04:00)

Tiangong 1 - Visible Passes

Search period start: 25 September 2016 00:00
Search period end: 05 October 2016 00:00
Orbit: 359 x 380 km, 42.8° (Epoch: 25 September)

Date Brightness Start Highest point End Pass type
(mag) Time Alt. Az. Time Alt. Az. Time Alt. Az.
25 Sep 1.3 05:54:38 26° W 05:56:02 54° NNW 05:59:02 10° ENE visible
26 Sep 3.4 04:53:12 23° ENE 04:53:12 23° ENE 04:54:32 10° ENE visible
26 Sep 2.0 06:25:14 10° WNW 06:28:06 37° N 06:30:59 10° ENE visible
27 Sep 1.7 05:23:36 44° N 05:23:36 44° N 05:26:22 10° ENE visible
28 Sep 2.0 05:53:58 22° NW 05:55:26 37° N 05:58:17 10° ENE visible
29 Sep 3.7 04:52:24 20° NE 04:52:24 20° NE 04:53:33 10° ENE visible
29 Sep 1.7 06:24:26 10° WNW 06:27:23 47° NNE 06:30:20 10° E visible
30 Sep 2.1 05:22:44 38° NNE 05:22:44 38° NNE 05:25:29 10° ENE visible
01 Oct 1.3 05:53:04 28° NW 05:54:26 59° NNE 05:57:26 10° E visible
02 Oct 3.9 04:51:32 18° ENE 04:51:32 18° ENE 04:52:31 10° E visible
02 Oct 1.1 06:23:27 12° WNW 06:26:04 56° SSW 06:29:03 10° SE visible
03 Oct 1.7 05:21:58 51° E 05:21:58 51° E 05:24:21 10° ESE visible
04 Oct 1.6 05:52:27 35° SW 05:52:48 37° SSW 05:55:38 10° SE visible
